Regional Weather Roundup
Issued by NWS Upton, NY

Current Version | Previous Version | Text Only | Print | Product List | Glossary On
Versions: 1 2 3 4 5 6 7 8 9 10 11 12 13 14 15 16 17 18 19 20 21 22 23 24 25 26 27
000
ASUS41 KOKX 280609
RWROKX

REGIONAL WEATHER ROUNDUP
NATIONAL WEATHER SERVICE NEW YORK NY
200 AM EDT SUN MAY 28 2017

NOTE: "FAIR" INDICATES FEW OR NO CLOUDS BELOW 12,000 FEET WITH NO
SIGNIFICANT WEATHER AND/OR OBSTRUCTIONS TO VISIBILITY.

NYZ071-072-176-178-NJZ106-104-280700-
NEW YORK CITY METRO AREA

CITY           SKY/WX    TMP DP  RH WIND       PRES   REMARKS
Central Park   CLOUDY    60  57  89 CALM      29.93S
Wall St Helipt PTCLDY    61  57  88 NE5       29.92S
Bronx Bot Gard   N/A     59  55  88 E2        29.93R
LaGuardia APRT MOCLDY    62  56  80 SE6       29.90S
Kennedy INTL   MOCLDY    59  58  96 SE3       29.92S
Breezy Point     N/A     57 N/A N/A SE5         N/A
Newark/Liberty PTCLDY    61  57  87 E3        29.90S
Teterboro      MOCLDY    60  56  86 CALM      29.90S
$$

NYZ177-179-078>081-280700-
LONG ISLAND NEW YORK

CITY           SKY/WX    TMP DP  RH WIND       PRES   REMARKS
Jones Beach      N/A     57 N/A N/A S5          N/A
Matinecock PT    N/A     61 N/A N/A CALM        N/A
Farmingdale    CLOUDY    59  57  93 S5        29.92S
MacArthur/ISP  CLOUDY    59  56  89 S7        29.92S
Shirley        CLOUDY    59  56  89 SE7       29.93S
Mt Sinai Harb    N/A    N/A N/A N/A S1          N/A
Westhampton    CLOUDY    57  52  83 S3        29.94S
East Hampton   CLOUDY    53  51  94 CALM      29.92S
Montauk          N/A     57  53  86 CALM      29.94F
$$

NYZ052-065-067-280700-
HUDSON VALLEY

CITY           SKY/WX    TMP DP  RH WIND       PRES   REMARKS
White Plains   MOCLDY    58  55  90 SE3       29.91S
Larchmont Harb   N/A     59 N/A N/A NE3         N/A
Croton O-T Hud   N/A     61 N/A N/A MISG        N/A
Newburgh       CLOUDY    63  59  88 VRB6      29.92S
Montgomery     CLOUDY    60  58  92 CALM      29.90S
Poughkeepsie   CLOUDY    61  57  87 CALM      29.89F
Albany         CLOUDY    62  54  74 CALM      29.90R
$$

NJZ001-105-106-008-010-013-015-019>022-104-280700-
NEW JERSEY

CITY           SKY/WX    TMP DP  RH WIND       PRES   REMARKS
Newark/Liberty PTCLDY    61  57  87 E3        29.90S
Teterboro      MOCLDY    60  56  86 CALM      29.90S
Caldwell       MOCLDY    61  56  83 E3        29.92R
Somerville     CLEAR     55  55 100 CALM      29.89R
Linden         NOT AVBL
Perth Amboy      N/A     59 N/A N/A E3          N/A
Sussex         CLOUDY    60  59  96 CALM      29.92S
Andover          N/A     59  58  96 CALM      29.91F
Trenton        CLOUDY    59  57  93 NW3       29.90R
Millville      MOCLDY    60  60 100 CALM      29.90F FOG
Atlantic City  MOCLDY    62  59  90 CALM      29.90
Wrightstown    CLOUDY    62  59  90 CALM      29.89S
Toms River     CLOUDY    61  59  93 CALM      29.92S
Belmar         MOCLDY    60  58  92 S3        29.92R
$$

PAZ047>061-062-071-280700-
EASTERN PENNSYLVANIA

CITY           SKY/WX    TMP DP  RH WIND       PRES   REMARKS
Philadelphia   MOCLDY    64  60  87 CALM      29.91S
Allentown      CLEAR     56  53  90 CALM      29.90F
Scranton       CLOUDY    61  56  83 E5        29.91F
$$

CTZ002-004>006-009-010-012-RIZ004-006-007-MAZ004-011-015-280700-
SOUTHERN NEW ENGLAND
 IN CT

CITY           SKY/WX    TMP DP  RH WIND       PRES   REMARKS
Bradley INTL   CLOUDY    58  54  86 S7        29.91F
Hartford       CLOUDY    58  53  84 S3        29.91F
Danbury        CLOUDY    57  56  96 SE5       29.92F
Wtrbury/Oxford   N/A     55  50  82 S3        29.93F
Bridgeport     CLOUDY    60  55  83 E5        29.92S
Meriden        CLOUDY    56  54  93 CALM      29.92F
New Haven      CLOUDY    57  54  89 CALM      29.92S
Chester        CLOUDY    55  54  94 CALM      29.93S
Groton         CLOUDY    55  53  93 CALM      29.92F
Wilimantic     CLOUDY    58  56  93 CALM      29.93S

 IN RI

CITY           SKY/WX    TMP DP  RH WIND       PRES   REMARKS
Providence     CLOUDY    56  55  97 S9        29.94S
Block Island   CLOUDY    55  54  96 S7        29.94F
Westerly       CLOUDY    54  52  93 CALM      29.94F
 IN MA

CITY           SKY/WX    TMP DP  RH WIND       PRES   REMARKS
Boston         CLOUDY    55  53  93 S8        29.91F
Worcester      CLOUDY    56  52  86 SW7       29.91F
Westfield      CLOUDY    58  56  93 CALM      29.90F
Provincetown   CLEAR     53  49  86 S5        29.94F
Nantucket      CLEAR     47  44  90 CALM      29.95F
$$

ANZ330-335-338-340-345-350-353-355-280700-
COASTAL MARINE OBSERVATIONS


STATION/POSITION TIME  SKY/WX   TEMP    WIND        PRES    VSBY  WAVE
                                AIR SEA DIR/SP/G                  HT/PER
                 (UTC)          (F)     (DEG/KT/KT) (MB)    (MI)  (FT/S)
NY HARB ENTRANCE 0450            58 58  130/  8/  8 1012.7          2/ 8
20 S FIRE ISLAND 0550            57 57  160/ 10/ 12 1012.4          2/ 8
GREAT SOUTH BAY  NOT AVBL
23 SSW MONTAUK P 0450            56 56              1014.2          2/ 8
15 E BARNEGAT LI 0530               59                N/A           2/ 7
HUDSON CANYON    0450            57 56  110/  8/  8 1013.3          2/ 8
KINGS POINT      0536            60 59  180/  2/  3 1012.8
EXECUTION ROCKS  0545            60                   N/A
CENTRAL LI SOUND 0515            56      CALM  /  2   N/A           0
EASTERN LI SOUND NOT AVBL
ROBBINS REEF     0542            60     100/  4/  4 1013.4
$$


>>>>>>>>>>>>>>>>>>>>>>>>>>>> KEY <<<<<<<<<<<<<<<<<<<<<<<<<<<
>                                                          <
>     SKY/WX - Sky Condition/Present Weather               <
>     TMP    - Temperature in Fahrenheit                   <
>     DP     - Dew Point in Fahrenheit                     <
>     RH     - Relative Humidity in Percent                <
>     WIND   - Direction (from) and Speed in MPH           <
>     PRES   - Mean Sea Level Pressure (inches of Hg)      <
>     WCI    - Wind Chill Index                            <
>     VSB    - VISIBILITY IN MILES                         <
>     HX     - HEAT INDEX                                  <
>     TC     - TEMPERATURE IN CELSIUS                      <
>     VRB    - VARIABLE WIND DIRECTION                     <
>                                                          <
>>>>>>>>>>>>>>>>>>>>>>>>>>>> KEY <<<<<<<<<<<<<<<<<<<<<<<<<<<




USA.gov is the U.S. government's official web portal to all federal, state and local government web resources and services.